sat.trackr.live / text

‹ back to catalog

STARLINK-36631

NORAD 67602 · 2026-018P

PAYLOAD ACTIVE UNKNOWN

§ Identity

Operator
Country
US
Launch date
2026-01-29
Launch site
AFWTR
Launch vehicle
Mass (kg)
RCS (m²)

Purposes: comms

External: N2YO · Heavens-Above · Gunter

§ Orbital elements

Epoch: 2026-05-25T02:59:04.824096Z

Period
93.91 min
Inclination
97.2851°
Eccentricity
0.0000436
Mean motion
15.33456308 rev/d
Perigee alt
465.2 km
Apogee alt
465.8 km
Semi-major
6,843.6 km
B*
4.8631e-4
RAAN
210.3410°
Arg perigee
158.4416°
Mean anomaly
201.6845°
Rev number
1,905

§ Raw data

STARLINK-366311 67602U 26018P   26145.12436139  .00015663  00000+0  48631-3 0  99902 67602  97.2851 210.3410 0000436 158.4416 201.6845 15.33456308 19057

JSON: /api/v1/satellites/67602 · /tle

For live sub-satellite position, see the globe view (requires WebGL).

§ Visibility from observer

Set your observer location to see the next 7 days of passes ≥ 10°. The values pass through the URL so the page stays shareable.

No JS? Fill the form by hand. The geolocation button needs JavaScript.